Tracking 22881 objects as of 20-Apr-2021
HD Live streaming from Space Station
objects crossing your sky now

STARLINK-2350

Track STARLINK-2350 now!
10-day predictions
STARLINK-2350 is classified as:


NORAD ID: 47890
Int'l Code: 2021-021AG
Perigee: 356.3 km
Apogee: 357.7 km
Inclination: 53.1 °
Period: 91.5 minutes
Semi major axis: 6727 km
RCS: Unknown
Launch date: March 14, 2021
Source: United States (US)
Launch site: AIR FORCE EASTERN TEST RANGE (AFETR)
aabbcc
Your satellite tracking list
Your tracking list is empty




NASA's NSSDC Master Catalog

Two Line Element Set (TLE):
1 47890U 21021AG  21109.58334491  .00065058  00000-0  46486-3 0  9999
2 47890  53.0513  38.1372 0001081  80.7865 260.1585 15.73171769  1763
Source of the keplerian elements: AFSPC